Theta_e
303 303 303 303 304 304 304 303 303 303 304 304 303 303 303 303 303 303 305 307 309 310 311 311 311 311 311 311 311 310 310 309 309 308 308 309 309 309 309 309 310 311 310 309 308 309 308 307 308 308 308 311 315 317 318 318 319 318 316 315 314 314 314 315 316 316 316 317 316 315 319 319 323 335 342 344 346 347 347 346 344 344 342 343 347 348 348 349
303 303 303 303 303 303 303 304 304 303 304 304 305 304 303 303 303 302 303 304 307 309 310 311 311 311 311 311 311 310 310 310 309 309 310 311 310 309 310 309 310 311 310 309 308 308 308 308 308 308 310 315 317 317 318 318 318 317 316 315 314 314 314 314 315 316 315 316 316 315 317 319 320 325 335 347 349 348 351 350 348 348 348 348 348 348 349 349
303 303 303 303 303 303 303 303 304 303 304 304 305 305 305 304 303 303 303 303 304 306 308 309 310 311 311 311 310 310 310 309 309 313 315 315 314 311 309 309 309 310 310 309 308 307 308 308 308 309 313 316 317 317 317 317 318 317 316 315 314 314 314 314 315 315 316 316 315 316 316 318 319 317 332 348 349 349 352 351 349 350 350 350 349 348 349 349
303 303 303 303 303 303 303 303 303 303 303 303 304 305 306 305 305 304 303 303 302 304 306 307 309 310 311 311 310 310 309 309 314 318 318 316 316 312 309 309 309 310 309 309 308 307 309 310 310 310 315 316 316 317 317 317 317 316 315 315 315 314 314 315 315 315 316 317 316 315 316 318 318 317 334 346 349 351 350 347 347 349 349 349 350 349 349 349
302 302 302 303 303 303 303 303 303 303 303 304 304 304 305 306 306 305 304 303 303 303 303 304 307 309 310 310 310 310 308 312 320 320 317 317 316 313 310 310 309 310 309 308 307 307 310 313 312 312 315 316 316 317 317 318 318 315 314 314 313 313 314 315 315 316 316 317 316 315 317 318 317 317 328 340 349 351 347 342 339 341 345 347 348 348 349 349
302 302 302 302 302 303 303 303 303 303 303 303 303 303 304 306 307 306 305 304 304 303 303 303 304 306 308 309 309 310 308 311 318 317 317 317 316 314 312 310 309 309 308 308 307 307 312 314 312 312 314 315 316 317 318 318 317 315 314 313 313 313 314 315 315 316 316 317 315 315 317 317 318 317 319 328 336 342 340 338 338 340 343 345 347 348 349 349
302 302 302 302 302 302 302 303 303 303 303 303 303 303 303 304 306 307 306 305 304 303 303 302 303 304 306 307 308 308 308 310 313 315 317 316 315 315 313 311 309 308 308 308 307 308 312 313 311 312 313 315 316 316 317 317 316 315 314 313 314 314 313 314 315 316 317 316 315 316 317 316 318 317 319 328 330 334 340 340 340 343 345 346 347 348 348 348
301 302 301 302 302 302 302 302 302 302 303 302 303 303 303 303 304 306 307 307 306 305 305 304 303 303 304 306 306 307 307 309 313 316 318 317 316 316 315 315 311 309 308 308 307 309 312 312 311 312 313 315 316 316 317 316 315 314 314 313 314 314 313 314 315 316 317 316 317 317 317 317 319 316 319 333 336 336 341 343 344 346 347 347 347 347 348 348
301 301 301 301 301 301 302 302 302 302 302 302 302 303 303 303 303 304 306 308 308 308 308 307 306 305 305 305 306 307 307 311 318 319 319 319 317 318 319 318 314 311 309 307 308 309 312 312 313 314 314 315 315 315 315 315 315 314 314 313 313 314 314 315 314 316 316 316 317 316 317 317 318 318 317 331 340 338 342 345 346 346 347 347 346 346 347 347
301 301 301 301 301 301 301 301 301 302 302 302 302 303 303 303 303 303 304 306 308 309 309 309 309 308 307 306 307 309 310 316 320 319 320 318 317 319 318 317 316 314 310 308 309 310 313 314 314 315 315 314 314 314 313 313 315 313 313 313 313 313 313 314 314 315 316 316 317 316 318 317 317 317 316 331 342 339 343 347 346 347 346 346 346 346 346 346
300 300 301 301 301 301 301 301 301 301 301 302 302 302 303 303 303 303 303 304 305 307 309 309 309 308 307 307 308 309 310 315 319 318 318 315 316 318 317 316 314 314 312 308 310 313 314 315 316 316 315 314 313 313 312 313 314 313 313 312 312 313 313 314 313 315 315 315 317 316 317 316 315 317 315 329 344 341 342 348 348 347 345 345 345 345 345 345
300 300 300 300 300 300 301 301 301 301 301 302 302 302 302 303 303 303 303 303 303 304 306 308 308 308 307 307 308 310 309 312 314 315 314 313 315 317 316 315 314 315 314 310 311 315 315 315 315 315 315 314 312 313 313 313 313 313 314 313 313 314 313 314 313 314 315 315 317 316 317 317 315 317 315 324 340 343 342 346 347 346 345 345 345 344 345 346
300 300 300 300 300 300 300 300 301 301 301 301 302 302 302 302 302 303 303 303 303 303 304 305 306 306 307 309 310 309 310 310 311 312 312 313 315 316 316 315 315 315 314 312 311 312 314 315 315 315 315 314 313 313 313 313 313 315 315 313 313 314 314 315 314 315 316 315 318 316 316 319 318 316 315 321 336 342 342 344 346 346 346 345 346 345 345 348
299 300 300 300 300 300 300 300 300 301 301 301 301 301 302 302 302 302 303 303 303 303 303 303 304 305 308 310 308 308 310 312 312 312 313 314 316 317 316 315 315 315 314 313 311 311 314 315 315 315 314 314 313 313 314 314 314 315 315 315 314 313 315 316 314 316 316 315 317 316 315 319 320 316 316 321 334 341 340 342 345 344 346 346 346 346 346 347
299 299 299 299 300 300 300 300 300 300 301 301 301 301 301 302 302 302 303 303 302 303 302 303 304 307 311 312 307 311 314 313 313 313 314 314 315 317 317 316 315 315 315 315 314 314 315 315 315 315 314 314 313 313 314 314 316 316 315 319 317 313 316 316 314 315 316 316 315 315 316 318 318 317 317 317 328 340 341 340 343 343 345 346 344 346 346 344
299 299 299 299 299 299 299 299 300 300 300 301 301 301 302 301 302 302 302 302 302 302 303 305 309 313 314 315 310 314 317 314 312 313 315 315 316 317 318 318 316 315 316 315 316 316 315 315 314 314 314 314 314 313 313 314 319 320 316 318 319 315 315 315 314 315 315 316 315 314 317 319 318 316 317 316 320 334 341 340 340 342 344 344 343 344 343 340
298 299 299 299 299 299 299 299 299 300 300 301 301 301 302 302 302 302 302 302 302 304 305 308 314 315 314 313 311 313 316 315 314 313 314 315 316 317 318 318 317 316 316 315 316 315 316 315 314 317 316 315 316 314 314 313 318 321 316 316 318 314 314 314 315 314 314 315 315 315 316 319 322 318 315 316 315 323 336 338 338 340 341 341 342 340 338 338
298 298 299 299 299 299 299 299 299 299 300 300 300 301 302 302 303 302 302 303 304 308 310 311 313 314 314 312 312 313 315 316 316 316 315 315 316 317 318 318 317 317 316 316 316 315 316 314 313 318 318 315 315 315 315 313 315 318 317 317 317 315 313 313 313 314 314 315 315 315 315 316 320 317 313 317 315 316 327 335 337 337 338 340 340 337 336 340
299 299 299 299 299 299 299 299 299 299 300 300 301 301 302 303 304 307 311 312 312 315 317 315 313 313 313 313 313 314 315 316 317 317 317 315 314 315 316 316 316 317 315 315 316 314 314 314 313 315 315 314 315 315 313 313 314 316 316 316 315 314 314 313 313 314 314 313 314 315 315 314 315 317 315 315 315 312 320 332 335 335 337 338 337 336 338 341
299 299 299 299 299 299 299 299 299 299 300 300 301 303 303 303 304 312 318 316 314 315 314 313 313 313 313 313 313 315 315 316 316 317 318 316 314 314 314 314 315 316 316 316 316 313 313 315 315 313 314 316 318 318 315 314 314 314 314 314 314 313 313 314 314 315 315 314 315 314 314 315 314 316 316 314 315 314 319 330 334 334 336 335 335 336 339 341
299 299 299 299 299 299 299 299 299 299 299 300 303 306 306 304 303 308 310 309 309 309 308 309 311 312 312 311 312 313 315 316 315 317 318 316 315 314 313 314 315 316 315 313 314 314 313 315 314 314 315 318 320 321 320 318 316 315 315 314 314 314 313 316 317 317 317 315 316 315 313 315 314 316 316 313 314 315 321 331 334 334 335 334 336 337 338 339
298 298 298 298 299 299 299 299 299 299 300 302 306 308 307 307 307 306 306 305 307 308 308 309 309 310 310 310 310 312 315 317 315 316 317 317 315 313 314 315 315 316 315 313 313 313 313 315 314 314 315 317 319 320 320 320 319 317 316 316 316 316 316 318 319 318 318 318 318 316 313 314 315 317 316 315 319 320 323 332 333 333 334 334 335 336 337 336
298 298 298 298 299 299 299 299 299 299 301 305 309 308 307 309 309 309 308 307 308 310 310 310 310 310 310 310 310 312 316 317 316 316 316 315 314 313 314 315 315 315 315 315 315 314 314 314 313 313 315 317 318 318 318 320 321 320 319 317 317 318 317 318 320 319 317 319 318 315 315 317 319 318 316 320 324 327 328 333 333 333 334 334 335 336 335 335
298 298 298 298 298 299 299 299 299 301 305 309 311 307 306 309 310 310 310 309 310 312 311 310 311 311 311 311 310 312 315 316 315 316 315 314 313 313 315 316 316 314 313 314 315 314 313 313 312 314 315 317 317 317 319 320 320 322 322 319 318 319 319 318 320 319 319 323 324 320 318 321 327 322 317 323 328 330 331 332 332 333 334 334 335 336 335 335
298 298 298 298 298 299 299 299 300 302 304 307 308 305 305 309 310 310 310 312 315 314 311 311 312 311 310 311 311 312 314 315 314 314 315 314 313 314 315 315 315 314 313 313 313 313 312 312 313 315 316 316 316 317 319 320 320 320 324 326 322 321 321 321 321 318 319 323 328 325 318 321 334 329 319 324 330 331 330 331 332 332 332 333 334 334 334 333
298 298 298 298 299 299 299 300 301 300 301 303 305 304 305 308 311 309 312 318 320 317 314 313 312 313 311 311 312 312 313 314 313 313 315 315 314 315 315 315 314 313 312 311 312 312 312 312 313 316 317 316 315 315 316 320 320 319 327 331 324 320 320 321 320 316 317 320 325 328 322 322 332 329 324 327 331 331 331 331 332 331 331 332 332 332 332 330
298 298 298 298 298 299 299 300 299 300 304 306 306 304 304 308 309 309 313 317 318 317 317 314 312 314 313 313 312 312 314 315 313 313 315 315 315 315 316 315 314 312 312 310 311 312 313 314 314 317 318 316 316 315 317 321 319 322 334 330 320 319 319 320 318 316 321 324 326 335 331 324 324 324 326 330 332 331 332 332 331 331 331 331 331 331 332 330
298 298 298 298 299 300 299 299 300 304 309 310 307 305 306 308 308 312 317 315 313 315 317 314 313 314 312 313 312 312 315 315 315 315 315 315 315 315 316 314 313 313 312 311 311 314 317 316 316 317 317 316 316 314 318 321 318 326 336 326 319 319 318 320 317 317 323 322 323 333 330 323 327 330 327 329 334 332 332 333 331 331 330 330 330 330 331 330
297 298 299 299 300 300 299 299 300 304 309 310 307 306 307 306 308 315 320 319 315 314 315 313 315 314 312 312 312 312 314 315 316 316 315 316 315 315 316 314 313 312 312 312 313 316 317 315 314 315 316 317 317 315 318 320 321 325 325 320 318 317 317 319 316 316 320 317 322 332 328 322 329 334 326 326 334 333 331 332 331 330 330 330 330 329 330 330
298 299 300 300 301 301 300 300 299 303 308 309 307 306 305 307 315 319 317 319 317 313 313 314 315 316 314 312 312 312 313 315 316 315 315 316 315 315 316 314 313 314 314 314 314 314 314 313 315 315 315 317 318 318 317 318 321 321 319 316 315 316 318 319 320 321 319 320 329 334 328 322 323 330 330 327 332 333 331 332 331 330 329 329 329 329 330 330
298 299 301 302 301 300 301 300 300 303 307 307 307 306 305 308 318 320 316 315 317 314 313 314 314 316 316 313 313 313 313 315 315 314 315 316 315 315 316 316 315 315 316 316 316 318 315 312 316 317 316 316 317 318 316 316 317 316 318 317 316 322 324 323 324 320 316 324 336 333 325 323 323 330 335 331 329 331 331 332 332 331 329 328 329 329 330 329
299 301 302 302 300 301 302 300 300 301 302 305 306 305 309 309 311 317 316 314 319 317 311 311 312 314 316 315 316 314 314 316 315 315 316 316 317 316 316 320 319 316 318 320 319 321 319 316 316 316 317 316 316 319 317 316 317 314 317 318 317 321 324 326 328 323 321 327 331 328 322 323 328 330 332 332 331 331 331 331 331 330 329 329 329 329 330 330
300 302 302 301 304 306 305 301 299 300 301 303 304 307 314 312 310 315 314 311 316 314 309 311 310 309 312 316 318 316 315 318 317 316 315 316 317 316 315 319 321 317 321 325 320 317 319 319 317 315 317 317 316 318 317 318 319 315 317 319 319 320 321 325 328 324 324 324 324 325 321 323 331 331 330 332 332 330 331 329 330 330 329 330 330 331 331 330
301 303 301 304 310 309 306 302 299 301 301 301 305 312 313 310 312 316 311 308 311 310 309 310 308 307 310 314 317 317 317 317 316 314 315 316 317 318 316 315 317 318 319 320 318 318 317 319 322 318 316 317 317 317 317 321 322 318 319 319 320 327 327 325 327 325 324 325 328 327 320 323 334 333 329 330 329 329 330 329 330 330 331 332 332 332 331 331
302 304 302 307 313 310 305 302 301 302 303 303 310 314 313 311 314 315 312 310 309 308 308 307 306 308 311 314 317 319 317 319 320 315 314 317 318 319 319 315 316 318 317 319 321 319 314 318 326 320 314 317 316 316 316 317 319 320 320 317 317 327 332 326 326 331 331 327 326 326 325 327 331 331 328 328 328 329 329 329 330 331 332 333 333 333 333 333
303 306 306 309 314 312 308 306 304 305 307 310 314 314 313 314 313 311 310 309 307 307 307 306 307 308 311 315 319 319 319 326 327 320 316 318 317 317 318 316 316 315 316 322 325 318 313 321 329 318 314 318 314 316 316 312 322 325 318 318 319 320 327 328 323 326 331 326 322 328 332 330 329 330 329 329 331 330 329 329 330 331 332 331 331 332 333 333
306 310 311 311 313 314 313 311 308 307 308 314 318 317 314 313 309 308 308 307 307 307 306 306 308 308 310 313 315 316 319 325 325 321 319 320 319 319 319 317 318 316 314 317 320 320 316 322 329 319 315 319 313 314 318 313 321 325 318 321 325 320 324 333 328 324 326 326 327 332 333 331 333 333 329 330 333 331 329 329 328 330 331 329 330 332 332 333
307 312 313 313 313 313 313 313 312 310 311 315 319 318 315 311 308 307 307 307 308 307 305 305 308 309 309 310 312 314 316 320 323 323 322 322 323 324 321 320 320 318 316 314 317 323 318 318 328 323 316 320 317 317 322 318 316 318 319 322 326 326 326 327 327 326 324 324 325 326 326 328 331 331 330 331 332 331 329 329 329 329 329 328 329 330 331 332
305 311 314 313 312 313 312 313 313 312 313 315 315 314 312 310 309 308 307 307 307 306 305 306 307 309 308 309 311 312 313 318 321 321 321 323 325 324 321 322 322 317 317 317 319 324 321 317 326 329 318 318 323 323 321 321 319 318 320 319 322 332 333 326 326 328 328 328 325 321 325 329 327 326 328 330 330 330 328 327 327 326 326 328 328 329 330 331
303 309 314 314 313 313 313 312 313 312 313 315 315 313 311 310 309 309 309 308 307 307 307 306 307 307 308 309 311 312 311 316 319 318 320 322 324 323 320 321 322 318 318 321 321 324 324 319 323 331 324 320 326 326 318 318 322 321 323 325 323 327 327 323 324 326 329 332 329 324 326 327 326 325 325 328 330 329 326 325 324 323 324 326 327 328 328 329
307 311 313 313 313 312 311 312 313 314 315 315 314 312 310 310 310 310 310 310 309 309 308 307 306 306 307 308 311 312 310 313 319 321 321 322 322 323 322 319 319 319 323 329 326 323 327 325 325 329 325 320 324 323 317 317 319 320 324 325 322 322 322 321 322 325 331 335 331 329 329 325 324 325 324 325 327 326 324 324 323 322 324 325 326 327 327 327
312 313 313 313 312 311 312 314 313 313 314 314 313 311 310 311 311 310 311 310 310 310 309 308 307 307 309 310 311 312 309 312 320 323 323 325 325 326 323 318 316 319 327 334 327 322 328 329 327 327 324 319 318 317 317 317 317 319 321 320 322 326 329 331 330 326 326 328 327 331 334 327 322 324 324 323 323 323 323 324 323 323 323 324 325 326 327 326
310 312 313 313 312 311 313 315 315 313 313 312 311 310 310 310 311 310 311 310 309 310 309 309 310 310 311 311 310 311 310 313 319 322 322 323 324 323 320 316 316 318 324 328 323 323 330 328 324 328 329 325 319 316 317 317 319 323 321 319 322 324 327 334 336 332 327 325 327 331 332 326 322 323 323 322 323 322 323 323 323 322 322 323 324 325 325 326
310 311 312 311 311 310 312 313 314 314 313 311 310 310 310 310 311 310 310 311 310 309 310 310 310 310 310 310 310 310 312 314 316 317 319 321 321 319 317 315 318 320 321 323 321 322 328 326 325 327 328 325 320 318 319 318 320 323 321 319 320 322 329 329 328 332 330 324 328 332 329 324 323 323 323 322 322 322 322 322 321 321 322 322 323 324 324 325
311 311 310 310 309 310 311 311 311 313 314 312 312 312 311 310 311 310 311 311 310 309 310 310 310 309 310 311 311 311 313 314 315 315 316 319 319 316 316 315 317 319 319 320 320 322 326 328 331 329 325 325 324 323 323 323 322 322 321 321 321 324 330 325 323 334 331 323 327 331 327 324 324 323 322 321 321 322 322 321 321 321 321 321 322 323 323 324
311 310 310 311 309 308 310 310 309 312 314 313 313 312 311 311 311 310 311 311 310 310 310 310 311 311 312 314 314 314 315 315 317 317 316 318 318 315 315 317 317 319 322 318 316 322 327 326 328 328 324 323 325 324 322 323 325 323 321 323 325 326 329 329 331 335 329 326 329 326 324 326 326 324 323 321 321 322 321 321 321 321 320 320 321 321 321 322
311 311 310 310 309 308 311 310 309 312 313 312 313 312 310 310 310 310 311 311 310 310 311 311 311 311 312 315 316 314 314 315 316 317 316 317 318 316 314 316 317 318 320 317 315 325 332 325 322 325 322 319 320 320 318 319 322 322 320 323 326 328 331 336 333 325 322 328 331 324 323 327 326 324 323 322 321 321 320 320 319 318 317 317 318 319 319 320
310 310 308 309 310 310 312 311 310 313 313 312 314 313 310 310 310 310 311 311 309 310 312 313 311 310 310 312 313 312 313 316 316 316 315 315 317 320 317 316 317 316 318 319 318 324 331 325 320 323 323 319 319 320 319 318 318 319 321 324 326 328 331 333 327 321 322 328 328 324 324 326 324 322 321 319 318 317 315 315 314 313 313 314 316 316 316 317
309 309 308 309 310 310 310 309 308 310 311 312 315 312 309 310 310 309 310 311 310 308 310 311 311 310 308 309 312 312 312 314 315 315 316 313 314 320 320 317 317 316 319 324 321 319 324 323 320 322 322 320 319 321 320 318 317 317 318 319 320 323 324 324 321 321 323 324 323 323 323 323 321 318 317 315 314 313 312 311 310 310 310 312 313 313 312 313
308 309 308 310 311 309 309 308 308 311 312 311 312 311 309 311 312 311 311 310 310 309 308 309 310 310 309 308 311 311 308 309 311 312 314 312 313 317 316 318 320 318 320 325 322 318 321 322 319 321 323 320 319 319 319 317 316 317 317 316 317 318 318 318 319 320 322 322 321 320 320 320 318 315 314 314 312 312 311 309 309 309 309 310 310 310 310 310
308 309 309 311 313 311 309 307 308 313 315 312 311 310 309 310 310 311 312 309 307 309 308 308 309 311 310 309 310 309 307 306 307 309 310 310 312 314 312 314 320 322 322 323 321 321 324 322 318 320 322 320 318 319 318 317 317 318 318 316 316 317 317 316 316 317 320 321 320 319 319 318 315 313 313 312 311 311 311 309 308 308 308 309 308 308 308 309
309 310 310 312 312 308 307 308 309 312 313 309 309 309 309 309 308 310 313 310 306 306 307 307 308 309 311 311 309 307 306 304 305 306 307 308 309 310 309 309 314 320 325 324 321 322 326 325 321 321 321 317 317 320 321 319 319 320 317 313 312 315 315 314 316 317 318 319 319 319 317 315 314 313 312 311 311 310 310 309 309 308 308 308 308 308 308 308
Wind_Speed
8 8 9 9 9 9 10 10 10 10 10 10 10 10 10 10 10 10 10 10 10 10 11 11 12 13 14 16 18 19 20 20 20 21 22 13 5 9 12 13 13 12 13 13 12 12 10 11 13 13 13 12 10 11 12 11 12 9 3 5 4 5 7 3 4 4 4 8 10 15 13 3 3 11 15 13 17 19 16 14 13 11 16 25 22 30 35 29
9 9 9 9 9 9 9 10 10 10 10 10 10 10 10 10 10 10 11 11 10 10 11 12 12 13 15 16 17 20 21 22 23 21 17 9 9 12 10 10 13 14 13 12 12 13 12 12 14 14 13 11 8 9 9 7 10 8 3 4 5 8 6 1 4 7 6 9 12 19 18 1 4 2 11 7 6 15 16 11 16 21 20 23 28 34 33 30
9 9 9 9 9 9 9 9 10 10 10 10 10 10 10 10 10 11 11 11 11 11 12 12 13 13 15 16 17 19 21 24 22 11 5 5 6 11 11 10 12 14 12 9 10 11 11 10 12 14 12 8 9 10 9 6 7 9 6 3 7 9 6 9 12 12 12 13 11 18 21 5 6 9 7 9 5 10 12 9 13 20 24 27 32 35 32 31
9 10 10 10 10 10 10 10 9 10 10 10 10 10 10 10 10 11 11 11 11 11 12 12 13 14 14 16 17 18 22 22 13 1 4 6 6 3 10 11 11 12 11 9 9 10 10 9 9 12 11 6 10 11 8 10 8 6 7 5 8 7 6 15 17 15 19 19 15 15 15 8 10 10 10 14 6 2 9 19 18 22 31 32 32 33 32 30
9 10 10 10 10 10 10 10 10 10 10 10 10 10 10 10 10 10 10 11 11 11 12 13 14 14 14 16 16 17 18 12 2 3 2 4 7 4 5 9 11 11 10 9 10 12 13 12 9 10 9 4 7 6 7 16 13 5 6 8 13 9 7 17 19 19 23 23 19 13 9 8 11 9 11 17 7 5 15 22 22 27 34 34 34 34 32 30
10 10 10 10 10 10 11 11 11 10 10 10 10 10 10 10 10 10 11 11 11 11 11 12 13 14 14 15 16 17 12 5 3 1 2 2 5 5 1 6 9 10 10 10 12 15 16 14 9 8 7 4 6 6 9 17 15 6 8 12 19 17 11 17 21 20 23 21 15 13 14 8 7 10 2 8 4 12 22 22 22 26 31 34 35 35 33 30
10 11 11 11 11 11 11 11 12 11 11 11 11 11 10 11 10 10 11 10 11 10 10 11 12 13 13 15 16 14 12 12 7 2 3 2 2 3 1 2 6 8 11 12 14 18 19 15 10 9 6 4 6 7 13 18 14 8 7 10 19 23 16 20 25 23 25 22 16 20 19 8 0 7 6 5 2 14 22 22 25 28 31 33 34 35 33 31
11 11 11 11 12 12 12 12 12 12 12 12 12 11 11 11 10 10 10 10 10 9 10 10 10 12 12 13 14 13 17 15 5 2 3 3 3 2 2 4 3 6 10 12 16 20 19 15 13 11 5 6 8 8 14 15 9 7 8 12 17 22 21 24 26 22 25 21 18 19 15 12 8 6 5 4 12 20 24 25 29 31 32 33 32 32 32 31
11 12 12 12 12 12 13 13 13 13 13 13 12 12 12 12 11 11 10 10 10 9 10 9 10 12 12 13 12 11 14 8 1 3 4 4 4 4 6 7 5 6 8 13 17 19 17 15 16 13 6 10 12 10 12 7 4 6 10 14 15 18 21 25 24 21 24 18 14 12 8 14 11 4 3 9 21 24 25 27 31 33 33 32 30 31 31 30
12 12 12 13 12 13 13 13 13 13 13 13 13 13 13 13 12 12 11 11 10 10 11 10 11 11 13 14 7 5 6 2 0 3 6 6 6 6 9 9 7 8 8 12 19 21 18 15 14 12 8 12 12 11 12 7 8 12 13 16 15 18 20 20 21 23 25 15 10 9 5 12 8 3 3 11 24 26 27 29 31 33 33 32 30 30 30 29
12 12 13 13 13 13 14 13 14 13 13 14 14 14 14 14 13 12 12 11 11 12 12 12 13 13 15 14 9 6 5 3 0 3 4 6 8 9 9 9 9 9 8 12 21 22 17 14 11 8 6 7 7 10 12 9 12 16 15 14 15 17 17 15 14 19 18 8 11 14 7 8 4 3 5 12 25 28 29 30 30 32 32 32 31 30 29 28
12 12 13 13 14 14 14 15 15 14 14 14 14 14 14 15 15 14 13 12 13 13 13 14 13 15 16 16 18 10 5 7 7 5 8 9 11 11 8 8 9 10 9 12 21 20 15 12 10 10 9 7 4 5 9 11 12 13 11 7 11 12 10 10 9 15 13 4 12 15 6 6 2 5 10 15 26 29 30 30 27 29 31 32 32 31 29 27
13 13 14 14 15 15 15 15 15 15 15 14 14 14 15 16 16 16 14 13 14 14 14 14 15 17 15 17 21 11 9 17 14 14 16 13 13 12 10 11 10 10 10 11 17 18 16 13 12 16 18 14 7 4 10 15 12 11 8 3 6 8 6 7 6 10 9 4 10 11 3 7 5 10 14 17 29 29 26 27 25 26 27 28 32 30 27 26
15 15 15 15 15 15 16 16 16 16 16 16 15 15 15 16 17 17 15 15 15 15 16 14 15 16 13 19 23 15 13 16 15 19 17 13 13 11 11 12 11 11 10 9 12 14 13 11 13 18 20 17 12 8 9 10 7 5 6 3 3 3 6 7 4 4 4 4 10 10 4 7 7 12 17 18 29 32 25 26 25 24 24 23 26 27 26 25
16 17 17 16 16 16 16 16 17 17 17 16 16 15 15 16 18 18 16 16 16 16 16 14 14 12 13 23 24 14 11 14 19 22 16 15 16 14 12 11 10 10 10 9 9 10 10 12 15 15 15 14 10 5 4 4 3 1 2 5 3 3 5 7 6 5 5 6 6 9 4 6 7 13 21 20 25 31 26 26 26 24 23 21 24 26 27 26
18 18 18 17 17 17 17 17 17 17 17 17 16 16 16 17 18 18 18 18 18 17 14 11 10 7 9 15 14 7 9 15 17 18 17 15 15 15 12 9 10 10 11 12 11 12 14 16 16 14 11 9 4 1 2 4 4 1 2 4 5 4 4 6 6 5 8 6 3 6 4 4 6 12 23 24 20 26 25 23 26 26 22 23 28 28 29 30
18 18 18 18 17 17 18 18 18 18 17 17 17 16 15 17 18 19 19 19 18 14 10 8 6 6 11 14 12 9 7 10 12 14 18 17 14 14 14 14 14 12 13 15 15 17 18 15 11 9 7 4 2 4 1 5 5 3 1 3 5 4 3 4 6 6 5 5 5 5 4 5 7 10 20 24 18 20 24 22 26 24 20 27 30 29 31 33
17 18 18 18 18 18 18 17 18 18 17 17 16 16 16 16 17 18 18 18 13 6 5 8 4 2 10 13 11 9 5 6 9 11 17 17 15 15 18 19 16 14 15 14 15 16 14 9 3 2 3 2 2 4 4 5 4 4 3 2 4 4 4 6 6 5 3 3 6 7 6 8 11 10 14 20 20 17 23 27 25 21 25 29 30 31 33 31
17 18 18 18 18 18 17 17 17 17 17 16 15 15 15 14 14 14 12 10 7 4 3 8 9 3 9 15 15 14 15 15 15 14 16 17 16 17 19 19 17 17 12 5 8 11 8 3 2 3 4 5 5 5 7 5 4 5 5 3 4 5 6 7 7 5 3 3 6 9 8 10 13 12 10 15 19 13 20 27 22 25 30 29 29 34 34 30
17 18 18 18 17 17 16 16 15 15 17 16 13 11 10 8 7 5 6 9 12 11 13 13 16 19 21 26 27 22 21 19 17 16 18 17 17 18 18 18 15 13 8 4 4 6 7 5 4 6 6 6 7 7 8 6 5 7 6 6 6 6 7 7 7 7 4 4 7 11 12 13 14 12 12 14 12 7 15 22 23 28 31 30 33 35 33 28
18 18 18 18 18 16 14 14 14 14 16 15 13 11 9 8 5 6 10 15 21 21 21 21 22 27 29 29 29 24 19 16 15 15 17 19 19 16 15 14 8 6 7 7 5 3 6 6 7 8 8 9 9 8 7 6 7 7 6 7 7 6 8 8 8 7 4 3 8 11 12 14 15 13 13 12 7 4 14 23 25 28 31 34 37 35 31 29
19 18 18 18 17 16 13 12 13 13 14 13 12 10 10 14 13 13 12 13 23 26 24 25 25 30 34 31 31 26 17 15 16 15 15 21 21 14 11 10 5 3 5 5 3 1 2 6 10 11 9 9 8 7 7 7 7 7 5 5 6 5 6 8 7 5 1 3 8 10 12 13 15 13 9 4 1 1 18 33 33 35 38 37 38 36 35 33
18 17 17 17 17 15 12 11 12 12 12 12 11 8 13 19 20 17 11 8 20 26 23 25 26 29 34 33 31 25 18 15 15 17 16 20 24 19 12 7 5 5 4 4 5 3 3 8 12 12 8 7 8 8 5 5 5 5 5 5 5 4 2 5 6 6 5 4 6 7 9 7 9 7 4 7 11 13 23 33 32 39 43 39 39 38 38 36
17 17 17 17 16 14 11 11 10 9 10 11 9 8 14 16 19 18 9 5 11 19 23 25 24 28 35 32 24 20 22 20 17 19 19 22 25 19 12 8 6 5 4 6 7 6 9 13 6 5 7 9 8 8 5 5 5 5 7 7 5 3 4 6 5 7 8 7 2 5 5 1 4 4 2 9 15 19 24 28 26 30 35 35 38 38 36 35
18 17 17 17 16 14 11 10 7 7 11 11 8 11 12 11 15 18 9 2 5 12 16 16 17 25 30 24 18 19 19 20 22 21 20 25 27 16 9 10 8 5 6 8 7 6 12 15 6 5 8 9 8 8 7 6 4 6 7 9 7 5 6 6 7 6 6 7 3 5 5 2 5 0 5 6 10 13 15 22 23 25 29 33 36 37 36 34
18 18 17 17 17 15 11 7 6 10 10 8 8 10 10 7 12 14 6 2 3 6 4 6 11 12 14 16 21 19 8 12 23 25 21 26 29 19 8 6 6 5 7 6 4 3 8 10 7 8 8 8 8 9 7 7 5 6 6 7 8 5 4 6 7 4 1 5 4 4 5 1 5 4 6 8 10 10 10 14 19 25 28 31 34 36 36 35
18 18 17 16 17 17 13 8 8 10 8 7 8 9 8 7 8 8 2 3 4 5 2 6 8 4 5 14 23 18 3 7 16 22 24 27 28 22 11 5 4 6 6 4 2 4 7 8 6 8 8 6 6 7 7 9 6 6 6 6 6 3 5 6 6 3 3 5 5 4 4 4 3 3 6 12 13 10 10 11 13 20 25 28 31 34 36 36
18 18 18 15 15 16 15 11 9 7 6 7 9 7 7 5 5 3 2 2 4 3 1 5 7 4 4 13 27 20 5 6 9 16 27 28 24 18 9 6 7 8 6 6 5 6 5 8 9 8 8 5 6 10 10 9 7 7 6 6 5 5 7 6 5 5 3 2 5 6 3 4 2 4 4 12 12 8 10 11 10 14 20 23 26 29 33 34
18 18 18 15 13 14 15 12 8 5 6 8 8 6 5 4 3 3 3 0 3 2 2 3 5 4 4 13 23 20 10 6 6 11 24 28 27 19 9 10 10 7 7 6 6 7 4 10 12 8 6 6 9 13 11 9 7 7 6 4 3 3 4 4 4 4 1 1 4 6 0 3 3 4 3 6 8 8 8 7 7 11 16 19 23 28 31 32
17 16 16 16 15 13 14 12 7 4 7 8 6 5 3 2 2 4 1 3 3 4 4 1 1 2 7 10 10 14 11 6 4 9 17 23 27 21 13 16 12 4 3 3 5 8 8 14 13 6 7 9 10 10 9 12 9 3 2 2 3 2 1 2 3 2 3 1 6 7 4 5 1 4 0 2 5 10 10 7 7 9 14 19 23 28 31 33
16 14 15 17 16 14 13 11 5 4 7 6 6 6 2 3 4 3 2 4 4 5 3 4 5 6 4 7 6 10 9 6 5 10 7 10 15 11 5 8 6 1 2 3 5 7 7 9 8 6 9 7 6 5 4 5 5 3 2 1 2 4 3 2 3 4 4 3 7 6 4 7 1 4 3 4 4 13 13 11 12 10 13 19 23 28 32 33
14 12 14 15 15 14 12 8 4 5 6 6 7 7 3 3 2 2 3 5 4 2 3 5 7 9 5 4 4 8 8 5 4 7 5 4 6 6 4 5 5 2 3 3 3 6 6 5 5 6 7 6 5 4 3 4 2 3 2 3 1 3 3 3 3 0 2 4 5 2 4 5 2 5 3 7 2 10 9 9 14 15 15 19 22 26 30 32
12 12 12 11 11 10 8 5 4 5 5 7 6 4 4 4 2 5 4 3 2 3 7 9 12 13 9 6 2 5 6 5 4 5 6 5 5 7 6 6 6 5 3 4 2 3 5 6 4 3 4 4 7 4 2 3 1 4 3 4 4 2 1 2 3 1 1 3 4 3 2 2 3 3 3 7 4 7 12 14 17 19 22 23 24 26 29 30
11 12 10 5 5 7 5 3 3 4 4 6 2 4 4 2 4 5 4 5 4 7 9 11 15 15 10 6 5 4 2 5 4 5 6 5 4 5 5 6 5 5 3 2 2 3 3 5 3 3 4 3 6 6 6 4 3 4 3 4 5 4 4 3 3 2 2 3 4 5 1 3 2 2 5 6 4 7 15 19 18 19 23 26 26 28 28 27
10 10 7 2 2 7 6 2 2 3 4 6 5 5 3 3 3 3 3 4 4 7 11 13 12 10 9 6 6 4 2 2 1 2 3 5 5 6 5 6 7 5 4 2 3 2 4 6 6 6 5 6 6 6 7 6 1 4 2 5 3 5 5 2 2 5 4 1 3 3 1 1 2 1 7 6 8 10 11 16 18 17 18 21 22 24 25 25
8 8 5 1 1 4 7 8 5 5 7 8 6 1 4 4 3 3 2 4 4 8 12 12 8 4 6 5 2 1 3 2 2 4 1 5 6 6 6 5 6 8 6 4 3 1 2 6 7 4 2 5 9 6 6 7 3 2 1 2 4 4 7 5 1 0 4 2 3 1 2 1 2 3 7 7 7 8 7 10 14 15 15 16 16 19 22 23
8 6 5 2 2 3 5 7 9 8 7 8 4 2 4 4 4 4 5 7 8 9 8 6 5 3 4 5 4 4 1 0 2 2 3 2 2 2 1 1 2 4 7 5 3 2 3 4 7 3 3 5 6 3 1 3 5 3 2 4 2 2 4 5 2 2 4 2 4 2 3 2 2 1 5 5 4 5 5 5 9 13 15 15 15 19 21 21
8 7 6 5 4 6 5 3 6 7 6 5 1 3 3 3 3 5 8 10 9 7 4 3 3 2 3 4 5 4 2 2 1 1 1 2 2 3 2 1 4 2 4 6 2 1 3 1 7 4 1 4 2 4 4 6 4 2 4 2 3 2 1 1 2 2 2 2 2 3 1 2 2 2 3 4 2 1 4 4 5 8 11 13 14 16 18 19
8 5 5 5 5 5 5 3 4 4 4 3 1 2 2 4 6 11 15 12 7 5 4 4 4 3 4 4 4 2 1 2 2 3 1 1 2 2 1 1 2 3 5 8 4 1 2 2 5 6 3 3 4 5 2 5 7 5 3 2 3 3 3 2 2 3 4 3 2 1 1 0 2 2 3 5 4 3 6 7 6 6 8 12 13 14 16 17
7 3 4 4 3 3 2 4 5 3 2 1 3 3 3 5 8 15 19 14 7 4 4 5 6 5 5 6 5 4 1 3 3 4 3 1 2 2 2 2 2 2 5 8 4 0 3 2 3 6 6 3 1 1 3 3 3 4 4 3 2 0 2 2 2 2 4 4 3 2 2 3 3 2 3 4 1 5 7 8 7 10 12 12 10 11 13 13
3 2 3 4 3 2 1 4 4 2 1 2 3 2 5 6 8 14 18 14 9 7 8 9 9 7 6 6 5 3 2 1 2 2 2 1 1 2 3 4 4 2 3 6 3 1 1 1 2 2 5 3 1 2 6 11 7 3 3 1 1 1 3 4 2 2 2 4 4 5 3 3 3 2 3 1 4 6 8 11 7 8 15 17 12 9 10 10
2 2 3 5 1 3 0 3 1 0 2 2 3 5 8 8 7 10 13 14 10 8 10 9 7 6 4 4 3 3 3 2 2 1 2 3 3 4 3 4 7 5 4 2 0 2 2 4 2 1 1 1 2 2 7 12 11 7 3 1 0 2 4 5 4 3 1 2 2 3 3 1 3 3 4 6 8 8 12 17 12 8 15 19 15 12 11 10
2 3 5 4 2 3 1 1 3 2 1 4 6 8 9 7 6 7 9 9 7 6 6 4 3 3 1 1 2 4 4 2 2 1 1 2 4 6 6 8 9 6 3 3 2 1 2 3 2 2 3 2 2 3 5 6 8 6 3 3 3 1 1 4 5 4 3 2 1 3 2 1 2 3 4 10 14 12 13 18 13 9 15 20 19 16 14 13
3 4 6 4 4 4 2 1 1 2 4 5 4 6 7 5 5 5 5 4 5 5 4 2 3 4 3 1 1 4 5 3 2 4 2 1 2 3 6 12 10 4 2 3 4 3 2 1 1 2 2 3 1 1 5 6 5 4 1 3 5 5 4 2 1 3 3 2 3 5 2 2 0 3 5 11 14 10 11 17 14 9 13 18 20 20 19 17
4 4 5 5 7 7 4 3 2 2 3 3 3 4 6 5 5 5 5 4 5 4 2 3 6 5 4 4 4 6 7 3 1 3 4 2 3 6 2 6 5 2 4 5 5 6 4 2 2 4 3 3 3 4 3 0 2 2 1 4 6 7 7 2 2 4 2 2 3 5 3 3 3 5 7 9 10 8 10 16 15 12 15 18 21 23 22 20
3 1 1 2 6 9 6 1 1 1 2 2 2 3 4 4 5 6 4 2 8 9 4 5 8 6 6 6 6 7 7 5 3 3 4 5 3 5 10 14 14 11 7 7 5 5 4 1 2 5 5 4 3 5 5 3 3 3 3 5 6 5 6 4 3 2 2 2 4 2 6 8 7 7 8 8 9 9 9 12 12 13 17 20 22 24 23 23
2 0 0 0 2 6 5 3 1 1 2 1 1 3 5 5 5 5 5 5 9 11 5 5 9 7 6 5 5 5 7 6 6 5 4 5 3 3 12 17 16 15 12 9 8 4 4 3 2 5 4 2 4 5 2 3 5 4 5 6 5 5 6 7 3 1 1 4 3 1 6 9 8 8 9 8 8 7 8 10 10 12 17 22 23 24 25 25
2 1 3 4 1 1 2 2 1 2 0 1 1 2 5 8 7 4 6 7 9 12 7 5 8 8 6 5 4 4 7 5 6 5 4 5 4 4 8 9 9 13 11 8 9 5 5 2 1 3 4 3 6 8 5 3 5 4 5 7 6 5 7 6 2 2 2 4 3 4 7 7 8 9 9 8 9 9 10 13 14 15 19 24 27 27 27 27
4 2 4 6 2 3 2 2 1 4 3 2 1 2 3 8 9 5 5 5 6 11 9 4 7 8 7 6 5 4 5 4 4 5 3 5 6 3 4 3 4 10 9 5 6 4 3 2 3 3 5 4 7 8 6 3 6 7 7 7 7 7 7 7 4 6 9 8 7 9 10 7 7 8 8 8 12 16 18 19 19 19 21 25 30 30 29 29
5 4 4 5 4 3 3 2 2 4 4 3 2 3 2 4 5 6 6 5 4 6 8 6 7 7 5 7 6 4 3 2 1 4 3 4 5 3 2 1 1 5 6 3 3 5 3 2 3 4 5 3 6 5 3 2 8 10 9 9 8 6 6 6 5 8 11 9 9 12 10 7 6 8 10 10 14 19 20 19 17 18 22 26 29 29 28 29
6 4 4 2 3 4 3 2 2 3 2 3 1 2 2 2 2 3 3 6 5 4 5 5 5 5 5 7 7 3 4 3 5 9 8 6 6 5 2 2 1 2 3 2 1 2 2 2 2 4 4 1 3 4 3 2 7 10 10 12 11 6 3 4 2 2 6 10 12 10 7 4 4 8 11 10 13 17 16 14 16 18 23 28 29 28 28 29
6 4 2 2 2 5 4 1 3 4 2 3 3 2 2 3 4 2 1 6 8 7 7 6 5 4 4 5 6 8 12 14 16 18 18 15 15 12 10 9 6 2 4 2 2 1 2 4 3 2 3 2 2 2 3 3 4 6 7 9 8 4 2 5 4 4 3 6 9 7 4 4 6 10 10 7 9 12 12 15 20 21 24 28 30 29 28 29
Wind_Direction
352 353 354 353 356 358 358 358 355 349 343 337 334 329 321 316 309 299 292 291 293 295 299 303 307 311 315 317 319 319 318 314 310 302 289 287 294 258 248 243 230 221 229 229 222 215 211 207 196 192 193 195 214 234 233 241 244 241 217 205 232 239 239 181 179 238 264 293 300 317 342 38 44 94 112 101 103 100 93 92 116 140 153 164 169 164 166 168
345 346 345 346 348 348 351 352 353 352 346 341 339 335 332 326 319 309 297 290 288 290 292 297 301 306 310 312 317 318 317 315 311 304 293 286 262 251 248 238 223 219 222 222 221 214 210 202 191 186 188 192 205 229 233 241 229 212 186 200 224 231 239 219 231 257 275 297 309 312 313 1 32 49 137 113 94 99 85 72 100 116 134 152 159 162 168 169
339 340 340 340 341 341 342 341 345 347 345 344 338 336 338 334 328 320 311 299 289 286 287 292 295 299 305 307 314 318 318 317 313 310 334 339 283 249 244 239 223 224 220 213 215 211 210 195 187 185 183 200 215 227 238 246 226 210 209 213 240 239 265 276 263 272 283 291 298 299 295 284 3 345 130 133 125 113 112 122 112 118 136 147 155 163 168 168
334 334 334 334 334 334 334 335 337 337 340 341 338 337 336 335 332 325 319 311 299 289 285 286 289 294 300 304 312 317 320 321 310 272 62 20 9 283 237 234 227 224 211 202 203 198 195 175 179 187 181 210 231 235 246 242 240 215 202 208 246 251 277 269 268 278 281 285 282 288 300 306 337 355 124 136 109 69 158 156 151 146 150 154 158 164 169 172
328 328 329 328 327 328 328 329 329 331 333 334 337 335 333 333 331 326 320 314 308 301 292 286 286 291 296 301 309 314 322 330 284 153 57 24 22 359 225 216 218 214 201 195 194 188 184 176 182 197 192 219 235 236 247 240 244 253 240 244 253 255 260 267 271 273 274 278 282 294 314 312 326 348 140 152 150 199 181 166 164 161 160 163 164 168 172 174
324 324 324 324 323 324 323 323 324 327 328 328 332 331 331 329 327 329 323 317 313 309 304 294 290 290 294 299 303 310 316 298 230 218 318 344 5 346 225 197 205 205 197 190 192 186 185 187 195 209 203 220 229 219 244 244 239 245 268 261 260 259 251 264 268 267 271 272 276 286 287 294 332 334 100 148 202 189 174 168 166 163 165 167 167 170 172 174
321 321 321 321 320 320 319 320 319 321 323 323 323 324 326 324 323 325 324 324 317 314 313 305 299 293 294 298 300 306 294 275 270 281 291 283 292 320 14 216 212 210 202 191 193 187 189 196 200 216 210 224 232 222 244 248 235 225 259 261 262 263 255 262 262 259 263 263 275 281 275 266 264 318 344 65 145 171 165 165 164 161 163 165 166 170 173 174
321 321 320 320 319 319 318 316 316 316 318 317 317 317 317 317 316 317 320 322 318 320 319 317 313 301 300 299 303 307 288 283 297 250 239 206 214 264 328 315 268 232 213 197 194 187 192 201 207 216 208 230 233 229 243 250 246 228 243 257 263 266 263 266 262 254 257 260 274 278 261 248 241 270 311 121 146 158 162 164 161 159 160 164 167 171 175 174
323 322 322 322 320 319 317 315 314 313 312 311 311 310 311 312 311 312 311 311 313 317 318 322 319 309 307 300 306 311 287 279 307 220 183 170 205 261 286 291 285 262 228 202 196 189 195 204 212 212 209 239 239 246 248 240 253 234 236 250 257 264 266 267 264 256 259 263 267 266 255 262 252 230 266 162 156 160 162 163 160 160 162 165 168 171 174 173
327 326 325 325 323 322 319 317 313 311 311 307 307 306 307 307 306 308 305 306 304 304 308 310 311 309 304 300 304 311 276 241 218 198 167 185 211 259 272 263 266 267 237 207 195 192 199 200 205 216 241 252 241 252 252 227 253 261 258 260 260 264 267 268 267 260 260 264 251 237 243 265 246 172 255 166 163 166 162 161 164 164 163 167 169 169 173 174
330 330 329 327 327 325 321 320 316 313 310 306 305 303 303 303 303 304 302 303 299 297 297 295 302 301 297 293 268 256 246 204 204 161 172 222 237 269 276 258 262 259 241 212 197 196 202 200 204 230 267 263 247 257 258 250 263 275 276 274 273 272 276 274 269 264 260 259 237 220 211 257 230 167 232 174 166 169 165 163 166 167 165 169 169 166 171 173
331 330 330 329 328 327 324 322 318 314 311 308 305 301 301 300 299 299 298 300 297 294 291 290 296 292 295 285 263 260 258 259 273 252 260 263 250 266 280 269 263 253 250 219 201 200 206 215 228 242 256 267 274 273 276 288 296 299 293 278 282 285 283 269 261 264 259 235 227 215 217 279 236 213 229 186 171 169 167 165 169 171 168 169 168 166 168 167
328 327 328 328 327 327 324 321 318 315 312 308 306 303 300 297 296 295 294 295 294 293 291 291 293 292 292 276 269 283 290 279 274 254 255 251 238 243 249 254 256 248 254 234 211 208 216 235 248 254 264 265 261 279 294 305 313 311 303 269 285 301 292 257 240 254 247 209 208 195 224 275 257 237 228 193 174 168 165 167 172 174 172 173 168 162 160 163
322 322 323 323 324 324 322 320 317 313 311 309 308 304 300 297 294 290 290 293 292 292 293 294 296 295 282 271 282 298 285 272 254 237 231 221 217 219 225 238 248 241 238 232 218 216 229 259 266 266 271 257 248 285 306 309 312 306 305 301 280 269 279 274 245 235 245 243 203 178 215 250 259 250 231 201 176 169 168 172 177 175 177 175 159 149 154 162
317 317 317 319 319 320 319 317 313 310 309 308 306 304 300 296 292 287 288 290 290 292 294 296 293 291 282 279 290 297 257 242 237 227 214 208 207 208 216 224 237 236 231 231 230 237 255 275 270 266 275 262 251 290 328 325 316 304 282 302 298 231 276 293 268 216 217 263 208 177 229 247 255 247 229 217 185 173 171 174 176 175 178 163 139 142 152 151
314 314 314 316 316 316 316 314 311 308 307 307 306 305 300 295 290 288 290 288 289 292 290 286 279 281 288 286 296 300 239 236 239 222 209 210 207 209 217 226 238 235 237 246 254 264 267 268 268 266 274 271 239 175 346 323 317 339 198 244 276 267 297 304 286 240 208 241 238 183 215 241 259 247 228 227 204 177 172 174 175 176 170 141 130 142 143 136
314 315 315 315 315 315 315 313 311 306 306 307 306 304 299 293 290 289 289 286 286 286 273 255 260 279 272 269 279 287 258 246 251 225 211 218 224 222 219 228 239 235 240 251 254 260 261 257 258 265 266 249 162 120 170 267 267 296 276 240 267 258 266 287 299 298 224 219 248 229 225 232 250 246 226 229 221 181 169 173 176 171 146 130 134 137 130 129
317 317 317 317 316 316 316 315 312 308 307 309 311 311 304 297 293 290 286 282 279 273 252 224 190 311 270 263 264 267 286 293 284 249 219 218 226 223 217 226 236 234 237 243 240 242 250 252 236 257 281 245 168 133 187 229 210 232 257 253 283 277 256 261 273 287 259 229 245 249 254 248 248 248 229 227 228 198 169 172 170 145 129 135 137 127 123 128
319 320 320 319 319 319 317 315 312 309 310 311 315 315 309 306 303 297 287 267 225 191 258 214 190 221 273 280 272 266 285 297 303 278 229 211 213 213 215 226 235 231 226 222 228 225 222 249 269 240 252 236 216 187 205 215 185 228 256 241 263 281 265 259 262 258 239 241 244 241 243 244 243 245 242 232 234 215 166 161 145 126 133 136 127 124 128 135
321 321 320 321 321 320 317 315 312 312 313 314 322 325 325 332 325 316 306 267 245 257 280 258 241 251 264 275 273 275 287 287 294 275 228 207 208 211 216 225 233 228 207 164 210 216 192 207 244 229 222 222 227 223 217 221 227 250 272 268 264 269 270 272 273 265 226 221 246 234 229 239 240 237 242 233 226 195 149 139 128 131 135 128 124 129 136 143
321 320 320 321 321 320 317 314 310 312 314 314 324 329 330 342 337 322 321 297 283 280 277 273 267 261 263 269 267 276 294 286 285 268 224 207 207 208 215 216 212 220 211 184 191 206 183 207 238 228 220 220 225 224 219 229 240 247 255 268 274 266 274 272 261 260 202 189 259 237 214 233 237 228 238 227 201 177 145 135 137 138 130 128 133 137 143 149
320 320 321 320 320 321 316 310 308 308 309 308 310 320 337 350 344 319 312 299 290 286 280 277 270 263 265 267 263 267 277 274 273 265 226 205 204 203 200 197 179 210 222 176 169 254 212 235 241 229 217 216 234 230 213 223 236 247 245 256 269 264 283 275 263 277 173 182 266 238 198 222 235 229 246 238 138 106 150 149 147 139 132 138 143 145 149 150
320 321 322 320 320 320 313 307 307 305 304 300 299 325 353 0 360 334 303 278 288 287 278 269 258 256 261 260 259 256 250 248 252 257 239 201 196 197 186 182 187 202 208 169 177 193 232 248 236 225 211 204 241 244 218 231 242 244 233 237 251 236 268 279 287 315 310 266 247 205 181 216 250 248 333 41 71 87 130 142 140 138 142 148 151 152 153 152
319 322 322 322 322 319 314 307 305 309 304 295 294 325 345 357 5 349 310 250 288 285 275 266 251 251 256 255 253 238 227 230 232 245 238 198 188 193 189 186 188 201 207 191 185 189 234 249 226 187 202 204 231 247 229 230 250 249 228 222 222 208 234 254 289 322 324 313 255 133 117 11 286 236 65 55 75 91 116 125 127 138 144 148 151 154 157 157
319 321 322 325 324 320 317 304 305 315 300 294 303 317 330 349 0 346 320 263 293 281 277 264 238 246 254 251 240 220 217 227 226 232 228 201 189 185 189 190 186 213 216 195 188 202 242 252 226 179 214 207 215 244 227 197 230 263 238 218 202 204 251 272 307 342 359 328 321 95 87 340 302 232 114 86 80 93 117 124 130 142 142 146 152 157 161 162
319 321 324 326 324 323 320 305 317 319 306 308 313 311 311 325 352 342 320 24 306 265 262 217 210 235 240 224 211 200 204 235 229 230 224 206 197 187 184 189 180 212 210 192 191 213 245 247 210 201 220 209 213 242 228 179 196 254 238 208 183 180 264 288 302 331 19 288 294 85 110 192 311 360 98 108 100 108 128 131 140 148 150 155 158 160 163 164
321 321 324 326 326 326 325 324 327 326 331 327 305 303 305 310 353 347 315 22 299 246 159 182 193 205 216 200 186 174 182 234 221 229 216 201 197 191 187 183 173 207 198 160 196 227 236 238 223 213 216 210 216 242 224 176 182 244 234 196 177 189 258 272 278 268 225 261 307 13 88 105 326 330 106 108 102 112 138 146 154 159 163 164 161 164 167 166
322 321 322 326 329 325 323 328 332 335 346 328 306 301 311 322 351 1 105 28 285 241 123 197 201 240 241 183 172 173 196 165 172 225 212 195 193 188 185 186 182 208 198 157 213 249 221 219 226 214 209 207 215 232 219 177 187 239 230 201 196 209 228 243 260 260 245 254 305 325 28 84 291 292 97 105 108 127 155 164 174 174 171 164 159 164 167 167
321 321 321 323 327 321 317 324 331 333 320 317 315 302 311 333 345 40 90 305 295 328 336 202 201 237 178 159 175 191 209 167 156 211 199 190 193 193 197 205 195 213 213 167 210 256 241 234 235 205 195 209 217 229 211 176 201 234 220 213 217 203 210 220 227 235 248 149 253 270 4 99 271 300 41 98 123 152 172 178 184 178 169 162 160 164 167 169
319 321 321 318 322 317 312 321 329 314 303 313 332 326 333 37 57 57 70 254 282 304 313 92 298 262 157 149 188 206 212 218 179 165 176 184 192 195 200 209 204 201 235 213 233 253 259 261 259 218 204 210 205 216 195 184 202 199 154 231 279 285 200 191 219 149 103 227 252 243 179 123 260 290 225 169 165 161 166 172 179 175 165 161 164 167 168 171
317 321 320 314 316 312 309 321 321 275 289 315 354 3 40 86 66 88 207 278 295 275 326 20 323 308 180 164 192 203 211 231 161 133 155 178 185 194 188 202 208 143 304 285 269 278 278 267 266 226 213 198 180 213 200 184 194 140 112 131 310 316 13 39 342 60 104 241 259 236 158 111 135 256 263 289 206 165 166 171 170 165 160 160 163 166 169 172
320 322 316 309 311 313 311 314 287 256 268 288 327 349 60 84 33 190 234 321 325 238 11 355 323 327 296 228 192 190 198 217 172 136 150 156 170 201 190 183 188 182 273 262 262 299 296 256 251 237 219 160 145 227 295 5 59 133 122 94 94 295 353 10 311 45 159 239 261 239 117 99 233 245 301 330 244 171 165 161 159 155 155 159 162 166 171 173
330 322 314 310 316 323 320 300 254 230 241 256 292 351 73 97 230 229 242 289 304 3 353 334 331 335 306 269 220 182 190 206 191 154 163 159 169 201 216 212 172 147 211 221 218 274 292 291 284 263 251 157 139 163 257 321 105 151 169 143 162 206 39 302 273 291 219 230 286 327 91 106 285 285 345 339 300 171 151 149 158 158 155 159 164 166 169 172
338 324 320 326 350 358 345 288 224 200 219 222 190 60 84 138 238 242 243 253 284 329 336 333 331 326 308 266 205 166 194 222 197 154 160 150 163 199 231 234 190 140 153 194 210 199 227 291 277 212 237 177 153 170 183 182 156 185 191 146 164 165 148 217 225 192 224 238 311 333 45 147 200 292 329 343 23 117 140 150 155 155 154 158 163 164 165 170
341 326 329 336 45 34 38 54 177 175 164 149 107 73 137 203 255 249 256 271 298 325 327 332 328 315 313 288 207 144 79 248 318 60 166 161 172 194 200 218 211 170 129 163 231 190 184 244 256 234 217 178 184 200 169 142 166 246 168 106 176 188 155 149 176 175 169 139 334 350 32 198 167 324 339 13 58 79 114 136 138 143 152 154 155 156 161 168
344 336 348 182 146 56 64 70 86 132 129 112 92 79 198 213 238 226 278 316 338 341 333 332 335 324 322 312 250 89 88 146 29 11 283 186 186 197 188 204 214 186 162 170 213 188 178 246 276 293 267 203 201 200 162 153 177 255 119 161 215 175 128 122 166 183 87 87 296 30 99 346 47 16 347 17 53 61 83 114 123 131 141 143 143 149 157 166
355 7 33 81 140 119 98 77 84 104 100 89 99 205 219 224 232 243 306 324 325 332 337 335 337 330 314 324 340 351 356 94 54 23 310 250 210 254 219 327 326 185 177 173 199 204 166 258 288 301 321 272 223 186 159 170 150 136 189 219 214 67 82 110 128 16 54 146 267 8 123 158 103 14 327 1 49 64 60 95 120 126 131 133 137 148 158 166
4 29 60 71 98 133 143 112 98 102 83 76 108 239 230 237 267 289 302 310 316 321 322 303 274 256 311 322 332 340 323 322 349 149 334 324 285 333 8 353 348 13 141 141 156 269 136 275 294 279 285 308 348 65 10 330 345 136 173 160 92 85 287 74 122 131 109 166 261 352 72 148 153 203 306 318 297 54 42 64 95 106 114 121 133 149 161 166
355 22 86 85 80 115 138 158 153 134 89 77 225 251 245 261 280 288 289 291 297 295 284 261 244 261 311 299 294 314 165 197 214 190 191 281 233 292 336 235 302 354 77 109 139 274 83 115 286 295 317 345 17 47 47 321 339 15 55 48 76 143 178 165 154 151 139 165 201 23 42 259 242 246 281 274 274 1 25 30 21 22 73 110 134 147 157 165
339 17 109 123 96 92 140 180 174 152 97 152 212 232 273 281 280 284 287 289 286 283 274 266 273 284 287 281 280 284 225 156 176 186 189 203 220 238 219 179 246 309 45 73 103 265 36 87 239 293 334 26 35 358 113 91 8 24 53 37 5 12 133 136 170 140 124 147 163 153 195 255 256 283 293 257 170 61 52 50 11 359 40 79 119 139 151 157
342 57 132 154 122 33 257 184 179 148 127 216 221 237 272 281 286 289 296 303 301 288 276 267 266 264 269 282 281 274 305 26 115 136 145 163 233 227 209 183 182 203 41 50 61 120 72 101 191 292 355 41 195 218 111 99 85 77 93 107 222 184 127 127 219 289 100 133 159 157 177 267 278 326 350 31 83 79 86 90 71 31 56 75 91 115 133 133
70 75 136 147 97 342 83 155 220 69 144 239 282 290 281 279 286 297 309 316 308 282 272 266 257 251 257 282 295 324 350 24 83 106 146 165 193 217 237 191 155 135 111 101 156 218 139 100 98 291 289 171 151 102 99 103 99 88 67 359 128 135 111 126 191 248 71 95 115 114 116 266 300 5 49 61 62 76 98 103 102 84 84 91 98 113 125 119
73 84 126 131 342 331 56 58 340 351 260 281 296 297 294 287 290 312 320 317 305 280 275 281 281 283 315 8 319 344 7 37 44 359 188 181 216 216 184 141 122 106 106 135 187 253 78 77 56 306 298 326 84 69 37 56 82 80 30 352 23 45 112 139 175 178 127 126 104 84 94 177 330 6 64 76 62 56 74 90 99 99 95 97 100 111 121 119
94 105 118 101 12 359 64 141 304 304 281 292 302 306 307 288 279 307 312 299 296 279 271 308 316 308 320 311 326 10 26 51 33 351 337 222 269 274 180 152 133 113 143 179 188 164 99 92 97 80 343 330 329 333 356 8 54 85 325 332 22 33 29 40 148 94 99 193 139 120 163 216 143 24 52 74 70 55 61 78 87 93 94 95 95 100 110 117
98 105 116 91 46 42 78 163 208 247 276 318 327 309 312 297 286 295 276 278 324 318 290 335 339 346 356 6 30 27 33 63 71 348 346 341 349 344 334 151 129 107 161 167 161 142 132 171 132 118 167 198 201 217 236 295 73 85 19 356 25 37 33 37 138 89 111 205 96 111 168 177 117 77 60 70 79 74 70 77 82 88 95 97 95 95 98 102
100 93 131 99 50 52 64 109 149 185 245 357 350 304 317 318 310 312 295 331 1 356 8 4 357 11 19 23 41 30 17 22 42 51 7 348 326 349 30 60 51 39 80 96 89 111 107 83 113 124 157 193 221 235 220 149 97 95 70 31 28 39 44 66 91 69 159 138 55 89 154 136 125 110 94 92 92 90 86 84 83 87 93 94 95 95 95 94
86 104 100 342 7 32 27 349 45 121 210 137 92 307 335 337 317 332 347 6 6 2 13 16 13 27 24 23 55 25 356 9 39 39 351 335 289 335 36 54 47 39 57 52 27 61 96 54 89 123 133 260 295 295 273 118 117 138 124 81 51 44 54 68 76 302 169 105 59 177 139 127 131 124 111 107 100 91 86 87 86 86 90 93 93 93 93 91
62 93 59 52 346 320 16 337 5 64 54 149 186 292 357 2 354 359 349 342 4 16 21 9 13 31 31 34 82 38 355 10 28 6 338 341 317 329 29 44 41 42 53 36 19 58 112 74 9 114 104 2 353 358 359 67 104 110 115 111 94 75 77 86 110 241 132 117 151 147 116 112 119 115 108 104 95 81 73 79 86 85 86 91 91 86 84 84
54 57 48 45 5 233 223 297 34 66 33 359 344 330 22 17 359 339 331 338 4 15 22 21 3 15 30 39 78 68 25 33 10 334 328 347 332 328 24 9 19 43 54 46 20 34 99 64 359 56 93 44 10 6 349 14 85 72 57 74 88 97 103 99 100 99 90 92 115 111 96 86 94 101 97 93 95 92 82 78 82 83 83 87 87 83 80 81
55 42 17 25 357 280 250 291 48 73 19 358 23 344 13 53 2 323 337 9 16 359 14 27 357 351 23 41 59 82 69 93 218 271 288 339 334 337 14 265 220 46 48 58 16 4 40 70 357 40 81 32 6 25 10 54 95 78 43 27 33 52 73 71 83 98 93 93 101 100 95 82 78 92 94 94 97 93 84 76 76 82 86 88 86 83 81 81
77 58 14 25 351 321 306 312 27 85 18 352 31 335 341 53 347 301 325 4 23 11 357 10 4 353 7 24 30 14 332 326 268 261 265 273 278 272 269 262 220 84 65 73 53 20 57 91 18 46 80 29 7 50 44 45 81 66 31 6 355 357 49 54 37 78 111 127 122 106 100 103 96 90 85 87 96 95 93 91 85 84 88 89 85 82 83 84
86 87 63 117 68 355 350 341 24 54 17 318 297 291 338 346 343 20 21 337 356 15 12 16 25 14 2 1 350 322 314 313 300 290 285 278 269 261 258 269 271 170 145 138 98 88 120 120 101 72 83 40 359 71 54 16 41 43 7 340 321 284 138 91 60 28 50 122 125 116 117 120 112 102 91 83 88 92 98 100 96 92 91 89 87 84 84 86